CW5689 Weather Reports


time (UTC)temp
C
wind
direction
speed
KPH
gust
KPH
rain 1hr
cm
rain 24hr
cm
rain mn
cm
humidity
%
barometer
mb
20260503014018 16 197 4.8 14.5 0.00 0.00 0.00 41 1010.1
20260503013520 16 237 4.8 14.5 0.00 0.00 0.00 41 1010.1
20260503013037 16 203 3.2 11.3 0.00 0.00 0.00 41 1010.1
20260503012517 16 159 3.2 9.7 0.00 0.00 0.00 41 1010.2
20260503012020 16 237 4.8 8.0 0.00 0.00 0.00 42 1010.1
20260503011536 17 216 3.2 8.0 0.00 0.00 0.00 41 1010.2
20260503011016 17 218 3.2 8.0 0.00 0.00 0.00 40 1010.2
20260503010516 17 0 1.6 12.9 0.00 0.00 0.00 40 1010.3
20260503010035 17 222 1.6 12.9 0.00 0.00 0.00 40 1010.3
20260503005518 17 246 4.8 12.9 0.00 0.00 0.00 39 1010.5
20260503005020 17 288 4.8 25.7 0.00 0.00 0.00 38 1010.6
20260503004533 17 234 9.7 27.4 0.00 0.00 0.00 39 1010.6
20260503004017 17 212 8.0 27.4 0.00 0.00 0.00 36 1010.7
20260503003516 17 247 4.8 14.5 0.00 0.00 0.00 38 1010.6
20260503003035 17 261 4.8 14.5 0.00 0.00 0.00 35 1010.4
20260503002520 17 238 4.8 12.9 0.00 0.00 0.00 36 1010.3
20260503002017 17 199 3.2 8.0 0.00 0.00 0.00 35 1010.4
20260503001534 17 228 1.6 9.7 0.00 0.00 0.00 35 1010.4
20260503001017 17 0 1.6 9.7 0.00 0.00 0.00 36 1010.4
20260503000516 17 186 0.0 12.9 0.00 0.00 0.00 37 1010.6
20260503000044 18 227 4.8 12.9 0.00 0.00 0.00 37 1010.6
20260502235513 18 210 3.2 9.7 0.00 0.00 0.00 37 1010.7
20260502235016 18 0 1.6 12.9 0.00 0.00 0.00 35 1010.8
20260502234534 18 267 1.6 30.6 0.00 0.00 0.00 35 1010.8
20260502234017 18 232 8.0 30.6 0.00 0.00 0.00 35 1010.8
20260502233520 18 220 9.7 17.7 0.00 0.00 0.00 34 1010.8
20260502233033 18 275 3.2 12.9 0.00 0.00 0.00 35 1011.0
20260502232518 18 0 3.2 12.9 0.00 0.00 0.00 34 1011.0
20260502232018 18 305 6.4 24.1 0.00 0.00 0.00 36 1011.1
20260502231542 18 253 8.0 24.1 0.00 0.00 0.00 33 1011.1
20260502231019 18 271 3.2 12.9 0.00 0.00 0.00 33 1011.2
20260502230519 18 0 4.8 12.9 0.00 0.00 0.00 33 1011.3
20260502230031 18 207 4.8 22.5 0.00 0.00 0.00 34 1011.2
20260502225518 18 230 6.4 22.5 0.00 0.00 0.00 34 1011.1
20260502225019 18 211 3.2 17.7 0.00 0.00 0.00 33 1011.1
20260502224535 18 262 6.4 17.7 0.00 0.00 0.00 33 1011.2
20260502224018 18 249 6.4 17.7 0.00 0.00 0.00 32 1011.3
20260502223520 18 241 3.2 19.3 0.00 0.00 0.00 34 1011.3
20260502223033 18 194 8.0 19.3 0.00 0.00 0.00 32 1011.4
20260502222518 18 232 9.7 17.7 0.00 0.00 0.00 34 1011.4
20260502222021 18 238 8.0 20.9 0.00 0.00 0.00 33 1011.6
20260502221536 18 238 8.0 20.9 0.00 0.00 0.00 34 1011.5
20260502221019 18 206 8.0 17.7 0.00 0.00 0.00 35 1011.5
20260502220516 18 249 8.0 19.3 0.00 0.00 0.00 34 1011.6
20260502220043 18 250 9.7 19.3 0.00 0.00 0.00 33 1011.7
20260502215517 18 244 6.4 16.1 0.00 0.00 0.00 33 1011.7
20260502215018 18 215 4.8 16.1 0.00 0.00 0.00 33 1011.8
20260502214531 18 241 4.8 24.1 0.00 0.00 0.00 33 1012.0
20260502214022 18 234 8.0 24.1 0.00 0.00 0.00 33 1012.0
20260502213518 18 263 9.7 24.1 0.00 0.00 0.00 33 1012.1
20260502213032 18 0 6.4 17.7 0.00 0.00 0.00 33 1012.0
20260502212612 18 253 3.2 17.7 0.00 0.00 0.00 31 1012.2
20260502212518 18 253 3.2 17.7 0.00 0.00 0.00 31 1012.2
20260502212019 18 266 8.0 24.1 0.00 0.00 0.00 31 1012.3
20260502211536 18 3 4.8 29.0 0.00 0.00 0.00 32 1012.3
20260502211018 18 261 12.9 29.0 0.00 0.00 0.00 31 1012.4
20260502210517 18 155 14.5 29.0 0.00 0.00 0.00 33 1012.5
20260502210035 18 212 9.7 22.5 0.00 0.00 0.00 33 1012.6
20260502205517 18 260 12.9 22.5 0.00 0.00 0.00 32 1012.8
20260502205018 18 212 9.7 30.6 0.00 0.00 0.00 34 1012.9
20260502204532 18 251 16.1 30.6 0.00 0.00 0.00 33 1013.1
20260502204019 17 195 16.1 27.4 0.00 0.00 0.00 32 1013.2
20260502203519 17 270 9.7 27.4 0.00 0.00 0.00 34 1013.1
20260502203032 17 256 12.9 27.4 0.00 0.00 0.00 32 1013.4
20260502202518 17 260 6.4 19.3 0.00 0.00 0.00 37 1013.4
20260502202018 17 194 6.4 24.1 0.00 0.00 0.00 37 1013.5
20260502201537 17 267 11.3 27.4 0.00 0.00 0.00 35 1013.5
20260502201021 17 253 14.5 27.4 0.00 0.00 0.00 37 1013.7
20260502200519 17 197 6.4 27.4 0.00 0.00 0.00 31 1013.6
20260502200036 17 211 8.0 27.4 0.00 0.00 0.00 34 1013.8
20260502195518 17 258 6.4 25.7 0.00 0.00 0.00 34 1013.9
20260502195017 17 245 8.0 24.1 0.00 0.00 0.00 32 1013.9
20260502194534 17 215 9.7 24.1 0.00 0.00 0.00 33 1014.1
20260502194018 17 289 4.8 24.1 0.00 0.00 0.00 34 1014.2
20260502193521 17 247 12.9 24.1 0.00 0.00 0.00 33 1014.3
20260502193032 17 290 6.4 24.1 0.00 0.00 0.00 31 1014.2
20260502192518 17 244 11.3 30.6 0.00 0.00 0.00 33 1014.3
20260502192017 17 211 11.3 30.6 0.00 0.00 0.00 33 1014.5
20260502191535 17 236 4.8 17.7 0.00 0.00 0.00 35 1014.5
20260502191021 17 305 3.2 22.5 0.00 0.00 0.00 29 1014.6
20260502190518 17 216 8.0 22.5 0.00 0.00 0.00 33 1014.8
20260502190035 17 255 11.3 19.3 0.00 0.00 0.00 33 1014.8
20260502185517 17 197 3.2 20.9 0.00 0.00 0.00 31 1015.0
20260502185018 17 230 6.4 22.5 0.00 0.00 0.00 34 1015.0
20260502184535 17 220 11.3 22.5 0.00 0.00 0.00 31 1015.1
20260502184018 17 268 9.7 20.9 0.00 0.00 0.00 30 1015.2
20260502183518 17 284 8.0 17.7 0.00 0.00 0.00 32 1015.3
20260502183034 17 214 3.2 20.9 0.00 0.00 0.00 32 1015.3
20260502182515 17 216 9.7 20.9 0.00 0.00 0.00 33 1015.5
20260502182017 17 269 12.9 20.9 0.00 0.00 0.00 31 1015.6
20260502181532 16 280 8.0 20.9 0.00 0.00 0.00 34 1015.7
20260502181017 16 258 4.8 22.5 0.00 0.00 0.00 35 1015.7
20260502180517 16 217 8.0 24.1 0.00 0.00 0.00 36 1015.8
20260502164015 15 189 9.7 24.1 0.00 0.00 0.00 36 1016.9
20260502163515 14 213 11.3 24.1 0.00 0.00 0.00 37 1017.0
20260502163041 14 209 6.4 22.5 0.00 0.00 0.00 37 1017.1
20260502162515 14 355 6.4 22.5 0.00 0.00 0.00 32 1017.2
20260502162015 15 289 11.3 22.5 0.00 0.00 0.00 36 1017.3
20260502161555 14 232 8.0 17.7 0.00 0.00 0.00 36 1017.4
20260502161026 14 248 8.0 19.3 0.00 0.00 0.00 38 1017.3
20260502160514 14 195 6.4 20.9 0.00 0.00 0.00 35 1017.4
20260502152017 13 215 9.7 19.3 0.00 0.00 0.00 36 1017.8
20260502151532 13 286 4.8 20.9 0.00 0.00 0.00 41 1017.8
20260502151017 13 288 8.0 20.9 0.00 0.00 0.00 39 1017.8
20260502150518 13 272 6.4 17.7 0.00 0.00 0.00 38 1017.8
20260502130519 6 0 3.2 4.8 0.00 0.00 0.00 68 1018.3
20260502123517 3 0 0.0 4.8 0.00 0.00 0.00 81 1018.3
20260502123107 3 0 0.0 4.8 0.00 0.00 0.00 82 1018.3
20260502122517 2 207 1.6 4.8 0.00 0.00 0.00 83 1018.3
20260502122024 2 0 0.0 0.0 0.00 0.00 0.00 84 1018.3
20260502121532 2 0 0.0 0.0 0.00 0.00 0.00 85 1018.3
20260502121018 2 0 0.0 0.0 0.00 0.00 0.00 85 1018.3
20260502120519 1 0 0.0 0.0 0.00 0.00 0.00 86 1018.4
20260502115520 1 0 0.0 9.7 0.00 0.00 0.00 88 1018.3
20260502115018 0 207 1.6 9.7 0.00 0.00 0.00 87 1018.3
20260502114536 0 205 4.8 9.7 0.00 0.00 0.00 87 1018.2
20260502114018 0 210 3.2 8.0 0.00 0.00 0.00 87 1018.2
20260502113517 0 217 4.8 8.0 0.00 0.00 0.00 87 1018.2
20260502113051 0 271 4.8 6.4 0.00 0.00 0.00 88 1018.2
20260502112516 0 0 0.0 0.0 0.00 0.00 0.00 88 1018.3
20260502112019 0 0 0.0 0.0 0.00 0.00 0.00 88 1018.3
20260502111533 0 0 0.0 0.0 0.00 0.00 0.00 87 1018.2
20260502111018 0 0 0.0 0.0 0.00 0.00 0.00 87 1018.2
20260502110521 0 0 0.0 0.0 0.00 0.00 0.00 86 1018.2
20260502110044 0 0 0.0 0.0 0.00 0.00 0.00 86 1018.3
20260502105518 0 0 0.0 0.0 0.00 0.00 0.00 86 1018.3
20260502105018 0 0 0.0 0.0 0.00 0.00 0.00 87 1018.3
20260502104539 0 0 0.0 0.0 0.00 0.00 0.00 87 1018.3
20260502104018 0 0 0.0 0.0 0.00 0.00 0.00 87 1018.2
20260502103517 0 0 0.0 0.0 0.00 0.00 0.00 87 1018.2
20260502103035 0 0 0.0 0.0 0.00 0.00 0.00 86 1018.2
20260502102518 0 0 0.0 0.0 0.00 0.00 0.00 86 1018.1
20260502102030 0 0 0.0 0.0 0.00 0.00 0.00 86 1018.1
20260502101535 0 0 0.0 0.0 0.00 0.00 0.00 86 1018.1
20260502101020 0 0 0.0 0.0 0.00 0.00 0.00 86 1018.1
20260502100517 0 0 0.0 0.0 0.00 0.00 0.00 86 1018.1
20260502091018 0 0 0.0 0.0 0.00 0.00 0.00 84 1017.9
20260502090518 0 0 0.0 0.0 0.00 0.00 0.00 83 1017.8
20260502071535 1 325 3.2 6.4 0.00 0.00 0.00 79 1018.0
20260502071021 1 325 1.6 6.4 0.00 0.00 0.00 79 1018.1
20260502070521 1 325 3.2 4.8 0.00 0.00 0.00 79 1018.0
20260502070035 1 325 3.2 4.8 0.00 0.00 0.00 79 1018.1
20260502065518 1 325 1.6 4.8 0.00 0.00 0.00 78 1018.1
20260502065019 1 325 3.2 4.8 0.00 0.00 0.00 78 1018.1
20260502064535 1 325 3.2 4.8 0.00 0.00 0.00 77 1018.2
20260502064017 1 325 1.6 4.8 0.00 0.00 0.00 77 1018.2
20260502063518 1 325 3.2 4.8 0.00 0.00 0.00 77 1018.3
20260502063051 1 325 1.6 4.8 0.00 0.00 0.00 77 1018.3
20260502062517 1 325 3.2 4.8 0.00 0.00 0.00 76 1018.3
20260502062017 1 325 3.2 4.8 0.00 0.00 0.00 76 1018.3
20260502061535 1 325 3.2 4.8 0.00 0.00 0.00 75 1018.3
20260502061017 1 325 3.2 4.8 0.00 0.00 0.00 75 1018.3
20260502060518 2 325 3.2 4.8 0.00 0.00 0.00 75 1018.3
20260502060034 2 325 3.2 4.8 0.00 0.00 0.00 74 1018.3
20260502055517 2 325 3.2 4.8 0.00 0.00 0.00 74 1018.3
20260502055017 2 325 1.6 4.8 0.00 0.00 0.00 74 1018.4
20260502054534 2 325 1.6 4.8 0.00 0.00 0.00 73 1018.3
20260502054017 2 325 3.2 6.4 0.00 0.00 0.00 73 1018.3
20260502053517 2 325 3.2 6.4 0.00 0.00 0.00 72 1018.4
20260502053038 2 325 3.2 6.4 0.00 0.00 0.00 72 1018.4
20260502052517 2 325 3.2 6.4 0.00 0.00 0.00 72 1018.3
20260502052019 2 326 3.2 6.4 0.00 0.00 0.00 71 1018.3
20260502051538 2 327 3.2 6.4 0.00 0.00 0.00 71 1018.4
20260502051017 2 328 3.2 6.4 0.00 0.00 0.00 71 1018.4
20260502050517 2 328 3.2 6.4 0.00 0.00 0.00 70 1018.3
20260502050039 3 330 3.2 4.8 0.00 0.00 0.00 70 1018.3
20260502045517 3 330 1.6 4.8 0.00 0.00 0.00 70 1018.3
20260502045017 3 330 1.6 4.8 0.00 0.00 0.00 69 1018.3
20260502044536 3 330 1.6 4.8 0.00 0.00 0.00 69 1018.2
20260502044016 3 330 3.2 6.4 0.00 0.00 0.00 69 1018.2
20260502043516 3 330 1.6 6.4 0.00 0.00 0.00 69 1018.2
20260502043035 3 330 3.2 6.4 0.00 0.00 0.00 67 1018.3
20260502042518 3 330 1.6 4.8 0.00 0.00 0.00 67 1018.3
20260502042018 3 330 3.2 4.8 0.00 0.00 0.00 67 1018.3
20260502041532 4 330 3.2 6.4 0.00 0.00 0.00 66 1018.3
20260502041017 4 331 1.6 6.4 0.00 0.00 0.00 65 1018.3
20260502040517 4 331 3.2 4.8 0.00 0.00 0.00 66 1018.3
20260502040035 4 332 3.2 4.8 0.00 0.00 0.00 65 1018.3
20260502035516 5 332 3.2 4.8 0.00 0.00 0.00 64 1018.3
20260502035017 5 332 3.2 4.8 0.00 0.00 0.00 64 1018.4
20260502034533 5 0 0.0 3.2 0.00 0.00 0.00 63 1018.4
20260502034017 5 0 0.0 3.2 0.00 0.00 0.00 63 1018.5
20260502033517 5 333 1.6 4.8 0.00 0.00 0.00 62 1018.5
20260502033043 5 333 1.6 4.8 0.00 0.00 0.00 62 1018.5
20260502032517 5 333 1.6 4.8 0.00 0.00 0.00 61 1018.5
20260502032017 5 0 0.0 4.8 0.00 0.00 0.00 62 1018.5
20260502031535 5 0 0.0 4.8 0.00 0.00 0.00 62 1018.5
20260502031017 5 333 1.6 4.8 0.00 0.00 0.00 62 1018.5
20260502030518 5 333 1.6 4.8 0.00 0.00 0.00 62 1018.5
20260502030034 5 333 3.2 4.8 0.00 0.00 0.00 61 1018.5
20260502025517 5 333 3.2 4.8 0.00 0.00 0.00 60 1018.5
20260502025017 5 333 3.2 4.8 0.00 0.00 0.00 60 1018.4
20260502024533 5 333 3.2 6.4 0.00 0.00 0.00 59 1018.3
20260502024017 6 333 3.2 6.4 0.00 0.00 0.00 58 1018.3
20260502023517 6 333 3.2 6.4 0.00 0.00 0.00 58 1018.4
20260502023032 6 334 3.2 6.4 0.00 0.00 0.00 56 1018.4
20260502022517 6 334 3.2 6.4 0.00 0.00 0.00 55 1018.3
20260502022017 6 334 3.2 6.4 0.00 0.00 0.00 55 1018.2
20260502021536 6 337 3.2 6.4 0.00 0.00 0.00 53 1018.3
20260502021017 7 337 4.8 6.4 0.00 0.00 0.00 51 1018.2
20260502020517 7 0 0.0 0.0 0.00 0.00 0.00 50 1018.1
20260502020035 7 0 0.0 0.0 0.00 0.00 0.00 46 1018.1
20260502015517 7 0 0.0 0.0 0.00 0.00 0.00 50 1018.1
20260502015017 8 0 0.0 0.0 0.00 0.00 0.00 48 1018.0
20260502014535 8 0 0.0 0.0 0.00 0.00 0.00 48 1017.9